This is the latest recevied weather packets stored in our database for station/object KK7MLS-13. If no packets are shown the sender has not sent any weather packets the latest 10 day(s).
| Time | Temp. | Humidity | Pressure | Rain* | Wind** | Luminosity | Snow |
|---|---|---|---|---|---|---|---|
| 1777773918 | 19.44° C | 67% | 1013 hPa | 0 mm | - | 40 W/m² | - |
| 1777773615 | 20° C | 65% | 1013 hPa | 0 mm | - | 43 W/m² | - |
| 1777773311 | 20° C | 64% | 1012.7 hPa | 0 mm | - | 45 W/m² | - |
| 1777773008 | 20° C | 63% | 1012.2 hPa | 0 mm | - | 47 W/m² | - |
| 1777772704 | 20° C | 63% | 1012.1 hPa | 0 mm | - | 51 W/m² | - |
| 1777772403 | 20° C | 62% | 1012.1 hPa | 0 mm | - | 54 W/m² | - |
| 1777772099 | 20.56° C | 63% | 1012 hPa | 0 mm | - | 57 W/m² | - |
| 1777771796 | 20.56° C | 63% | 1012 hPa | 0 mm | - | 60 W/m² | - |
| 1777771495 | 20.56° C | 63% | 1012 hPa | 0 mm | - | 62 W/m² | - |
| 1777771190 | 20.56° C | 63% | 1011.9 hPa | 0 mm | - | 64 W/m² | - |
| 1777770887 | 20.56° C | 61% | 1011.9 hPa | 0 mm | - | 66 W/m² | - |
| 1777770585 | 20.56° C | 62% | 1011.9 hPa | 0 mm | - | 69 W/m² | - |
| 1777770281 | 21.67° C | 59% | 1011.9 hPa | 0 mm | - | 72 W/m² | - |
| 1777769978 | 21.67° C | 59% | 1011.8 hPa | 0 mm | - | 77 W/m² | - |
| 1777769676 | 22.22° C | 59% | 1011.9 hPa | 0 mm | - | 88 W/m² | - |
| 1777769372 | 22.22° C | 57% | 1011.9 hPa | 0 mm | - | 107 W/m² | - |
| 1777769069 | 22.22° C | 59% | 1011.9 hPa | 0 mm | - | 134 W/m² | - |
| 1777768767 | 22.78° C | 55% | 1011.9 hPa | 0 mm | - | 146 W/m² | - |
| 1777768463 | 22.78° C | 56% | 1012 hPa | 0 mm | - | 170 W/m² | - |
| 1777768161 | 22.78° C | 55% | 1011.8 hPa | 0 mm | - | 199 W/m² | - |
| 1777767858 | 22.78° C | 54% | 1011.9 hPa | 0 mm | - | 220 W/m² | - |
| 1777767554 | 22.78° C | 56% | 1011.9 hPa | 0 mm | - | 209 W/m² | - |
| 1777767250 | 22.78° C | 54% | 1011.7 hPa | 0 mm | - | 219 W/m² | - |
| 1777766948 | 23.33° C | 53% | 1011.9 hPa | 0 mm | - | 207 W/m² | - |
| 1777766645 | 23.33° C | 52% | 1012 hPa | 0 mm | - | 287 W/m² | - |
* Rain latest hour (hover to see other rain measurements)
** Current wind speed in m/s (hover to see current wind gust speed)